Wind_Speed
23 23 22 21 21 21 21 20 21 21 21 19 19 19 19 19 19 19 18 18 18 18 18 18 18 18 18 17 18 19 19 20 20 20 19 19 20 20
24 23 23 22 21 21 21 21 21 21 21 20 19 19 20 19 19 19 19 19 18 18 18 18 18 19 19 18 19 20 20 20 20 20 20 20 21 21
25 24 23 23 22 21 22 22 21 20 20 20 19 19 20 20 20 20 19 19 19 19 19 19 19 20 20 20 20 21 21 21 21 20 20 21 21 21
25 25 24 24 23 22 23 22 22 21 21 21 20 20 21 20 20 20 19 19 20 20 20 20 20 20 21 21 21 21 21 21 21 22 22 21 21 21
26 26 26 26 25 24 24 24 23 22 22 22 22 21 21 21 21 20 20 20 20 21 21 20 21 21 21 22 22 21 21 22 22 22 22 22 22 22
27 27 27 27 27 26 26 25 25 24 23 23 22 21 21 21 21 21 21 21 21 21 21 21 22 22 22 22 22 22 22 22 22 22 22 22 22 22
28 28 27 28 27 27 26 26 26 25 24 23 23 22 21 21 21 21 22 22 22 22 22 22 22 22 22 23 23 23 23 23 23 22 22 22 23 23
27 26 25 25 25 25 26 26 27 26 24 24 23 23 22 22 22 22 22 22 22 22 22 22 22 22 23 23 23 23 23 23 23 23 23 23 23 24
25 25 26 25 25 25 25 26 27 27 26 25 24 24 23 23 23 23 23 23 22 22 23 23 23 23 23 23 23 23 24 24 24 24 24 24 23 24
25 25 24 25 24 25 25 25 25 26 26 26 26 25 25 24 24 24 24 24 24 24 23 23 23 23 24 23 23 23 23 23 24 24 24 24 24 24
24 24 24 24 24 25 25 25 25 26 26 26 26 26 26 25 24 24 24 25 24 24 25 24 24 24 24 24 24 23 23 23 24 24 24 25 25 25
24 24 24 24 24 25 25 25 25 26 26 26 26 26 26 25 24 24 24 24 24 24 25 24 24 24 23 24 24 24 24 24 24 24 24 25 26 26
24 25 25 26 25 26 26 25 25 26 26 26 26 25 25 24 24 23 23 24 23 24 24 23 23 23 23 23 24 24 24 24 24 25 25 25 25 25
24 24 25 26 26 26 26 26 25 25 25 26 26 25 24 24 24 23 23 23 23 24 23 23 23 23 23 23 24 24 24 25 25 25 25 25 25 25
24 24 25 26 27 27 26 26 26 25 25 25 25 24 24 24 24 23 23 23 23 23 23 23 24 24 24 24 24 24 24 25 25 26 26 25 25 26
23 23 24 26 26 26 27 27 26 25 25 24 24 25 25 24 24 23 24 24 23 24 24 24 24 24 25 25 25 25 25 26 26 26 26 26 26 26
23 23 23 23 24 25 26 27 27 27 26 25 25 26 25 25 24 25 25 25 25 25 25 26 25 26 26 26 26 26 27 27 27 27 26 26 26 26
23 23 23 23 23 24 25 25 26 26 26 25 25 25 25 26 25 25 25 25 25 25 25 25 25 26 26 26 26 27 27 27 27 26 26 26 26 26
23 22 22 23 23 24 24 24 25 26 26 25 25 25 25 25 26 26 26 26 26 26 26 26 25 25 25 25 26 27 26 26 25 25 25 25 25 25
22 22 22 23 23 23 23 24 25 25 25 25 25 25 25 25 25 25 25 26 26 27 26 26 26 25 25 25 25 25 25 25 24 24 24 24 24 24
22 22 22 22 22 23 23 23 24 24 25 25 25 25 25 25 26 26 26 26 26 26 26 26 26 25 25 25 24 24 24 24 23 23 24 24 24 24
22 22 22 22 22 22 23 23 23 23 24 24 25 25 24 24 25 25 26 26 26 25 25 26 26 25 24 23 23 23 23 23 23 23 24 24 24 24
22 22 22 22 22 22 22 22 22 22 23 23 24 24 24 24 24 24 24 24 24 23 23 23 24 24 23 22 22 22 22 22 23 23 23 23 24 24
Wind_Direction
276 273 272 274 275 273 273 270 270 269 268 266 267 267 269 269 268 269 269 269 269 268 267 266 266 266 267 265 265 266 265 265 266 266 263 263 265 267
274 272 271 273 274 273 271 269 268 268 265 266 269 269 269 270 269 269 268 269 269 267 266 266 265 264 265 266 266 266 266 266 267 265 264 265 266 267
270 270 271 271 269 270 270 268 266 264 265 267 270 269 269 269 270 270 269 268 267 265 265 265 265 263 264 265 265 266 267 267 265 264 264 266 266 267
269 268 268 267 266 267 269 266 265 264 266 268 270 270 270 269 270 271 270 268 268 266 266 266 265 265 265 265 267 267 266 266 266 265 265 266 266 267
269 266 265 264 265 265 266 265 264 264 266 267 269 269 269 268 269 270 269 268 268 266 264 265 265 266 265 266 267 267 266 266 267 266 265 265 265 266
269 267 264 263 262 263 263 264 264 264 265 265 266 267 268 269 269 268 268 268 268 266 265 264 265 266 266 266 267 267 266 266 267 267 266 266 265 266
270 267 265 261 261 261 262 263 264 264 263 263 265 266 268 271 270 268 268 268 268 267 266 265 266 267 267 267 267 266 266 266 267 267 267 267 267 268
271 268 264 261 260 259 262 262 261 262 263 264 266 268 270 270 271 271 271 270 268 266 266 266 268 267 267 268 268 267 267 266 266 266 266 267 268 268
270 268 264 263 264 263 263 263 263 262 262 265 265 267 268 269 269 269 269 270 267 266 266 267 268 269 269 268 267 267 266 266 266 267 267 268 268 269
268 266 265 263 264 265 265 265 264 262 261 262 263 266 267 269 270 269 268 269 267 266 266 266 267 269 268 267 267 267 266 266 266 267 268 270 270 269
269 268 267 265 265 265 265 266 266 263 262 262 261 262 265 267 270 270 268 267 267 268 267 267 267 268 267 267 267 267 267 266 267 267 269 271 271 270
270 267 266 264 263 262 263 263 264 264 262 261 262 262 263 266 269 270 268 266 267 269 268 267 267 267 266 266 266 266 267 267 267 269 270 270 270 270
271 267 264 262 261 262 263 264 264 264 262 262 264 263 263 264 266 268 266 266 267 268 267 266 267 267 266 265 266 267 267 268 269 270 272 271 270 270
271 267 264 264 263 263 264 264 263 263 262 263 263 263 263 263 263 264 265 266 266 267 267 265 265 265 266 265 265 266 268 269 270 271 272 271 271 271
272 268 266 266 265 264 263 262 262 261 262 262 262 262 263 262 262 261 263 265 265 266 266 263 263 264 265 265 266 266 267 269 270 272 272 271 271 271
274 272 269 268 266 263 262 261 261 262 260 260 260 260 261 261 261 261 262 264 265 266 265 264 263 263 265 266 266 267 267 269 270 271 271 270 271 271
275 273 272 270 267 264 262 261 261 261 259 259 259 259 259 261 262 264 265 265 265 265 265 266 266 265 266 267 267 267 268 270 270 269 270 269 271 272
278 275 273 271 267 264 264 263 260 259 259 259 260 259 259 260 261 262 263 263 264 263 264 264 265 266 267 269 269 269 269 270 269 269 270 270 271 271
277 275 272 271 271 269 266 263 259 258 259 260 260 260 261 262 262 262 263 262 264 264 264 266 268 268 269 270 270 270 270 270 270 270 271 271 271 272
276 273 271 270 270 269 266 263 260 259 259 260 260 260 262 263 263 264 265 265 265 265 265 266 268 270 270 270 270 270 271 270 269 271 271 271 273 274
276 273 271 270 270 269 267 264 262 260 261 261 261 261 262 263 263 264 265 266 266 266 265 266 268 269 270 269 269 270 273 273 273 274 274 274 275 275
277 274 272 272 272 271 267 264 263 261 261 261 261 262 263 263 264 265 265 266 266 266 264 264 265 267 269 270 271 271 272 273 275 275 274 273 274 274
276 273 272 272 273 271 268 265 264 262 261 261 262 262 262 264 264 265 266 265 265 266 266 265 265 266 268 269 271 272 273 273 272 273 274 275 275 276
Height
5811 5811 5811 5811 5811 5811 5811 5811 5811 5811 5811 5811 5811 5811 5811 5811 5811 5811 5811 5810 5810 5810 5811 5811 5811 5812 5812 5813 5813 5813 5814 5815 5815 5815 5816 5817 5817 5817
5804 5804 5804 5805 5805 5805 5805 5805 5805 5805 5805 5806 5805 5805 5805 5805 5805 5805 5805 5805 5805 5805 5805 5806 5806 5807 5807 5808 5808 5808 5809 5809 5810 5810 5811 5811 5811 5812
5798 5798 5798 5798 5798 5799 5799 5799 5799 5799 5799 5800 5800 5800 5800 5800 5800 5800 5800 5800 5800 5800 5800 5800 5801 5801 5802 5802 5802 5803 5803 5803 5804 5804 5805 5805 5805 5806
5790 5791 5791 5791 5792 5792 5792 5793 5793 5793 5794 5794 5794 5794 5794 5794 5794 5794 5794 5794 5794 5794 5794 5794 5795 5795 5796 5796 5797 5797 5797 5797 5798 5798 5799 5799 5800 5800
5783 5783 5784 5784 5784 5785 5785 5786 5786 5787 5787 5788 5788 5788 5788 5788 5788 5788 5788 5788 5788 5788 5788 5788 5789 5789 5790 5790 5791 5791 5791 5792 5792 5792 5793 5793 5793 5794
5775 5775 5775 5776 5777 5777 5778 5779 5779 5780 5781 5781 5781 5781 5781 5781 5782 5782 5782 5782 5782 5782 5782 5782 5783 5783 5784 5784 5784 5785 5785 5785 5786 5786 5786 5787 5787 5787
5767 5767 5767 5767 5769 5770 5770 5771 5772 5773 5773 5774 5774 5775 5775 5775 5775 5775 5775 5775 5776 5776 5776 5776 5777 5777 5777 5778 5778 5778 5779 5779 5780 5780 5780 5780 5780 5781
5759 5759 5759 5759 5761 5762 5763 5764 5765 5766 5766 5767 5768 5768 5768 5768 5769 5769 5769 5769 5769 5770 5769 5770 5770 5770 5770 5771 5771 5772 5772 5772 5773 5773 5774 5774 5774 5774
5751 5752 5752 5753 5754 5755 5756 5756 5757 5758 5759 5760 5761 5761 5762 5762 5762 5762 5762 5762 5762 5762 5763 5763 5763 5763 5763 5764 5764 5765 5765 5765 5766 5766 5766 5767 5767 5766
5744 5744 5745 5746 5747 5748 5748 5749 5749 5750 5751 5752 5753 5754 5754 5754 5755 5755 5755 5755 5755 5756 5756 5756 5756 5757 5757 5757 5757 5758 5758 5758 5759 5759 5759 5759 5759 5759
5736 5737 5738 5739 5740 5741 5741 5742 5742 5743 5744 5744 5745 5746 5746 5747 5747 5747 5747 5748 5748 5749 5749 5749 5750 5750 5750 5750 5750 5750 5751 5751 5751 5752 5752 5752 5752 5752
5729 5729 5730 5731 5732 5733 5734 5734 5734 5735 5736 5736 5737 5738 5739 5739 5739 5739 5740 5740 5741 5741 5742 5742 5742 5742 5743 5743 5743 5743 5744 5744 5744 5744 5744 5744 5744 5744
5721 5721 5722 5723 5724 5724 5725 5726 5726 5727 5728 5729 5729 5730 5731 5731 5732 5732 5733 5733 5734 5734 5735 5735 5735 5735 5736 5736 5736 5736 5737 5737 5737 5737 5736 5736 5736 5736
5712 5713 5713 5714 5715 5716 5717 5718 5718 5719 5720 5721 5722 5722 5723 5724 5724 5725 5725 5726 5727 5727 5727 5727 5728 5728 5729 5729 5729 5729 5729 5729 5729 5729 5729 5728 5728 5728
5704 5704 5705 5706 5707 5708 5708 5709 5710 5711 5712 5713 5714 5715 5716 5716 5717 5718 5718 5719 5719 5720 5720 5720 5721 5721 5721 5722 5722 5722 5722 5722 5721 5721 5721 5720 5720 5720
5697 5697 5697 5697 5698 5699 5700 5701 5702 5703 5704 5706 5707 5708 5708 5709 5710 5710 5711 5712 5712 5712 5713 5713 5713 5713 5714 5714 5714 5714 5714 5714 5714 5713 5713 5712 5712 5712
5689 5689 5689 5689 5690 5691 5692 5693 5694 5695 5697 5698 5699 5700 5701 5702 5703 5703 5704 5704 5705 5705 5705 5706 5705 5705 5705 5706 5706 5706 5706 5705 5705 5705 5705 5704 5704 5703
5682 5682 5682 5682 5683 5683 5684 5685 5686 5687 5689 5690 5691 5692 5693 5694 5695 5696 5696 5696 5697 5697 5697 5697 5697 5697 5697 5697 5697 5697 5697 5697 5697 5696 5696 5696 5696 5695
5675 5675 5675 5675 5676 5676 5677 5678 5679 5680 5681 5682 5684 5684 5685 5686 5687 5688 5688 5688 5689 5689 5689 5689 5689 5689 5689 5689 5689 5688 5688 5688 5688 5688 5688 5688 5688 5687
5668 5668 5668 5668 5668 5669 5669 5670 5671 5672 5674 5675 5676 5676 5677 5678 5679 5680 5680 5680 5680 5681 5681 5681 5681 5681 5681 5681 5681 5681 5680 5680 5680 5680 5680 5680 5680 5679
5660 5660 5661 5661 5661 5662 5662 5663 5664 5665 5666 5667 5668 5669 5669 5670 5671 5672 5672 5672 5672 5673 5673 5674 5673 5673 5673 5673 5673 5673 5672 5672 5672 5672 5672 5672 5672 5672
5653 5653 5653 5654 5654 5654 5655 5656 5656 5657 5658 5659 5660 5661 5662 5663 5663 5664 5664 5665 5665 5665 5665 5665 5665 5665 5665 5665 5665 5665 5665 5665 5665 5664 5664 5665 5664 5664
5645 5645 5646 5646 5647 5647 5648 5648 5649 5650 5651 5652 5653 5654 5655 5655 5656 5656 5656 5657 5657 5657 5657 5657 5657 5657 5658 5658 5658 5658 5658 5657 5657 5657 5657 5657 5657 5656